Regional Weather Roundup
Issued by NWS

Home | Current Version | Previous Version | Graphics & Text | Print | Product List | Glossary On
Versions: 1 2 3 4 5 6 7 8 9 10 11 12 13 14 15 16 17 18 19 20 21 22 23 24 25 26 27 28 29 30 31 32 33 34 35 36 37 38 39 40 41 42 43 44 45 46 47 48 49 50
353
ASUS45 KBOU 250007
RWRCO

WEATHER ROUNDUP FOR COLORADO
NATIONAL WEATHER SERVICE DENVER/BOULDER CO
600 PM MDT SAT JUN 24 2017

NOTE: "FAIR" INDICATES FEW OR NO CLOUDS BELOW 12000 FEET WITH NO
SIGNIFICANT WEATHER AND/OR OBSTRUCTIONS TO VISIBILITY.

COZ001>005-013-030-031-250100-
...NORTHWEST COLORADO...

CITY           SKY/WX    TMP DP  RH WIND       PRES   REMARKS
CRAIG          FAIR      80  18  10 NW12      30.26F
HAYDEN         FAIR      77  25  14 W13       30.28S
MEEKER         FAIR      79  25  13 N8G23     30.26F
RABBIT EARS PA FAIR      57  30  35 W12       30.55S
STEAMBOAT SPGS FAIR      75  31  20 W3        30.29S
WALDEN         NOT AVBL
$$

COZ006>008-011-250100-
...WEST CENTRAL VALLEYS...

CITY           SKY/WX    TMP DP  RH WIND       PRES   REMARKS
GRAND JUNCTION FAIR      93  23   8 W14       30.07F
MONTROSE       FAIR      88  19   8 N15       30.14F
EAGLE          SUNNY     84  16   8 W14       30.23S
RIFLE          FAIR      87  22   9 N12       30.16F
DELTA          FAIR      94  21   7 W13G20    30.08F
NUCLA          FAIR      91  12   5 N10G17    30.17S
$$

COZ017>023-064>068-250100-
...SOUTHWEST COLORADO...

CITY           SKY/WX    TMP DP  RH WIND       PRES   REMARKS
DURANGO        FAIR      88   9   5 NW20G30   30.15F
CORTEZ         FAIR      93   7   4 NW16G29   30.11F
PAGOSA SPRINGS FAIR      86   4   4 W14       30.22S
TELLURIDE      FAIR      75  13   9 W14G24    30.42F
WOLF CREEK PAS FAIR      59  19  21 S6        30.65S
$$

COZ009-010-012-014-032>034-037-058>063-250100-
...CENTRAL COLORADO...

CITY           SKY/WX    TMP DP  RH WIND       PRES   REMARKS
ASPEN          FAIR      77  20  12 N15G23    30.30S
BUENA VISTA    PTSUNNY   71  42  34 SE10G21   30.30R
COPPER MTN     PTSUNNY   61  23  23 W12G20    30.63R
BERTHOUD PASS  FAIR      50  36  57 MISG      30.66S
COTTONWOOD PAS PTSUNNY   72  37  28 E15       30.44S
GUNNISON       FAIR      80  17   9 W10G18    30.28S
KREMMLING      NOT AVBL
LEADVILLE      FAIR      68   9  10 W17G26    30.44F
MONARCH PASS   FAIR      63  19  19 NW14G26   30.72R
SALIDA         FAIR      71  46  39 SE22G33   30.35R
SUNLIGHT       FAIR      59  19  21 CALM      30.58F
WILKERSON PASS PTSUNNY   52  41  66 E10G22    30.60S
$$

COZ069>075-250100-
...SAN LUIS VALLEY/SANGRE DE CRISTO MOUNTAINS...

CITY           SKY/WX    TMP DP  RH WIND       PRES   REMARKS
ALAMOSA        FAIR      80  30  16 SW8       30.21S
DEL NORTE      FAIR      81  33  17 SE13      30.24F
LA VETA PASS   CLOUDY    54  46  76 N20G33    30.60R
SAGUACHE       FAIR      82   5   5 NW24G35   30.26R
$$

COZ035-036-038>040-250100-
...NORTHERN COLORADO FRONT RANGE...

CITY           SKY/WX    TMP DP  RH WIND       PRES   REMARKS
DENVER INTL AP PTSUNNY   74  46  36 NE20G25   30.26S
DMNS CITY PARK   N/A     73  43  33 NE10G25   30.26S
AURORA         PTSUNNY   72  46  38 N10       30.27S
FRONT RANGE AP FAIR      75  45  33 NE13G22   30.27R
ERIE MUNI ARPT FAIR      73  45  36 NW6       30.26S
BOULDER MUN AP FAIR      72  43  35 NE3       30.27S
CENTENNIAL     FAIR      73  45  36 N13       30.27F
BROOMFIELD     FAIR      72  45  37 N8        30.29S
FORT COLLINS   PTSUNNY   77  46  33 VRB5      30.27F
LONGMONT       FAIR      78  44  29 NE3       30.27F
$$

COZ041-046-047-076>085-087-088-250100-
...PIKES PEAK/PALMER DIVIDE AND SOUTHERN FOOTHILLS...

CITY           SKY/WX    TMP DP  RH WIND       PRES   REMARKS
COLO. SPRINGS  PTSUNNY   69  45  41 CALM      30.31F
A. F. ACADEMY  FAIR      69  45  43 S7        30.31F
SCHRIEVER AFB  FAIR      68  43  40 E7        30.32S
CHEYENNE MTN   FAIR      63  45  52 W5        30.30F
ELLICOTT       FAIR     N/A N/A N/A SE8       30.30S
FALCON           N/A     66  42  41 S9        30.36S
FORT CARSON    FAIR      71  46  40 CALM      30.28F
LIMON          FAIR      71  44  37 S5        30.27S
MONUMENT HILL  FAIR      66  45  45 S5        30.36S
CANON CITY     CLOUDY    73  50  43 E8        30.25S
WALSENBURG     CLOUDY    75  50  41 N21G28    30.27R
TRINIDAD       CLOUDY    76  47  35 W7        30.22S
$$

COZ042>045-048>051-090-091-250100-
...NORTHEAST COLORADO...

CITY           SKY/WX    TMP DP  RH WIND       PRES   REMARKS
GREELEY ARPT   FAIR      75  47  36 E13       30.26S
AKRON          PTSUNNY   73  48  41 E15G23    30.27S
BURLINGTON     PTSUNNY   74  50  42 S9        30.24F
WRAY           FAIR      75  46  35 NE9       30.24S
YUMA           CLOUDY    70  48  46 NE12G17   30.25R
STERLING       FAIR      73  45  35 E7        30.24F
HOLYOKE        NOT AVBL
FORT MORGAN    FAIR      70  45  40 E13       30.26F
$$

COZ086-089-092>099-250100-
...SOUTHEAST COLORADO...

CITY           SKY/WX    TMP DP  RH WIND       PRES   REMARKS
PUEBLO         CLOUDY    75  48  38 E9        30.21S
LA JUNTA       PTSUNNY   79  48  33 SE12      30.18F
LAMAR          CLOUDY    78  48  34 SE13      30.17F
SPRINGFIELD      N/A     71  52  50 S17G26    30.22F
$$




USA.gov is the U.S. government's official web portal to all federal, state and local government web resources and services.